Location: Ahausen
(50.4985°N, 8.2722°E)
Time: 02:53:01
(UTC+00:00)

SWAS - Pass Details

Date: 18 September 2020
Orbit: 581 x 590 km, 69.9° (Epoch: 22 October)

Event Time Altitude Azimuth Distance (km) Brightness Sun altitude
Rises 19:31:23 0° 329° (NNW) 2,831 8.9 -18.9°
Reaches altitude 10° 19:33:38 10° 330° (NNW) 1,925 7.9 -19.2°
Maximum altitude 19:37:57 80° 57° (ENE) 602 4.3 -19.8°
Enters shadow 19:38:57 52° 136° (SE) 734 4.5 -19.9°
